CREW DRAGON DEMO-1 DEB (44064 NORAD) Tracking and Keplerian Element Data

This shows tracking and keplerian element data for the satellite.

Feedback or suggestion? Click here.




ElementValue
Catalog44064
NameCREW DRAGON DEMO-1 DEB
Epoch Orbit202
Epoch Day80.44939667
Epoch Year2019
RAAN77.044
Inclination51.6376
Eccentricity0.0005354
Argument of Perigee137.5131
Mean Anonmoly222.6239
Mean Motion15.56566395
Decay Rate9.199E-05
L11 44064U 19011B 19080.44939667 .00009199 00000-0 13367-3 0 9997
L22 44064 51.6376 77.0440 0005354 137.5131 222.6239 15.56566395 2029

Live tracking and technical data element details for CREW DRAGON DEMO-1 DEB (NORAD 44064). CREW DRAGON DEMO-1 DEB can be tracked NOW for your location showing map with azimuth and elevation plus other details from your city location.

Track the satellite on the map from your city or location and see movement details for azimuth, elevation, latitude, longitude, range, height, and movement on the map or in text.







IsCatalogInMostPopularTable: catalog: 44064, numindb: 4
Update: records affected: 1



GetName: 44064 CREW DRAGON DEMO-1 DEB

Hit Count: updated at: Sat, 23 Mar 2019 00:52:51 GMT